Regional Weather Roundup
Issued by NWS Huntsville, AL

Home | Current Version | Previous Version | Text Only | Print | Product List | Glossary On
Versions: 1 2 3 4 5 6 7 8 9 10 11 12 13 14 15 16 17 18 19 20 21 22 23 24 25 26 27
000
ASUS44 KHUN 180210
RWRHUN

WEATHER ROUNDUP FOR THE TENNESSEE VALLEY
NATIONAL WEATHER SERVICE HUNTSVILLE AL
800 PM CST FRI NOV 17 2017

ALZ001>004-180300-
NORTHWEST ALABAMA

CITY           SKY/WX    TMP DP  RH WIND       PRES   REMARKS
SHOALS AIRPORT CLOUDY    60  43  53 S10G17    29.96F
$$

ALZ005>007-016-180300-
NORTH CENTRAL ALABAMA

CITY           SKY/WX    TMP DP  RH WIND       PRES   REMARKS
DECATUR AP     CLOUDY    55  40  56 SE6       29.99F
HUNTSVILLE AP  PTCLDY    56  39  53 SE5       29.99F
MERIDIANVILLE  CLEAR     59  32  36 SE8       29.99F
REDSTONE ARSN  PTCLDY    57  36  46 S8        29.98F
VINEMONT AP    FAIR      56  36  46 SE9       30.02F
$$

ALZ008>010-180300-
NORTHEAST ALABAMA

CITY           SKY/WX    TMP DP  RH WIND       PRES   REMARKS
ALBERTVILLE    CLEAR     54  43  66 SE6       30.02F
FORT PAYNE     CLEAR     43  37  81 CALM      30.05S
SCOTTSBORO AP  CLEAR     46  41  81 CALM      30.03F
SCOTTSBORO HCN   N/A     45 N/A N/A MISG        N/A
VALLEY HEAD      N/A     43 N/A N/A MISG        N/A
$$

TNZ076-096-097-180300-
SOUTHEASTERN MIDDLE TENNESSEE

CITY           SKY/WX    TMP DP  RH WIND       PRES   REMARKS
TULLAHOMA      CLEAR     55  32  41 S7        29.96F
WINCHESTER     CLEAR     57  34  41 SE13      29.98F
$$

...SURROUNDING SITES...

CITY           SKY/WX    TMP DP  RH WIND       PRES   REMARKS
ATLANTA        PTCLDY    54  44  69 SE5       30.09S
ANNISTON       CLEAR     46  41  82 NE3       30.07F
BIRMINGHAM     CLEAR     61  40  45 SE5       30.05F
CHATTANOOGA    PTCLDY    48  41  76 SW3       30.06S
CORINTH        FAIR      63  52  67 S13G20    29.89F
DALTON         CLEAR     54  41  62 SE5       30.08F
GADSDEN        CLEAR     43  41  93 CALM      30.06S
GOLDEN TRNGL   CLOUDY    63  55  75 SE10      29.96F
HALEYVILLE     FAIR      58  49  72 S9        30.00F
JACKSON TN     MOCLDY    64  53  67 S13       29.85F
MEMPHIS        CLOUDY    69  57  65 S16       29.83F
NASHVILLE      CLOUDY    61  33  35 S17       29.91F
OXFORD MS      FAIR      63  55  77 S7        29.90F
ROME           CLEAR     48  43  82 CALM      30.07S
SAVANNAH       PTCLDY    63  50  63 S13G18    29.89F
SELMER         CLEAR     63  52  67 S13G20    29.88F
TUPELO         MOCLDY    64  52  64 SE14      29.92F
TUSCALOOSA     CLEAR     63  52  67 SE9       30.01S
$$

...GULF COAST WEATHER...

CITY           SKY/WX    TMP DP  RH WIND       PRES   REMARKS
GULFPORT       CLEAR     64  62  93 CALM      30.03R
PASCAGOULA     FOG       57  55  93 CALM      30.05S VSB 1/4
MOBILE         CLEAR     62  59  90 SE3       30.06R
GULF SHORES    CLEAR     56  56 100 CALM      30.06S FOG
PENSACOLA      PTCLDY    61  58  90 S5        30.06S
DESTIN         CLEAR     61  55  81 CALM      30.07S
PANAMA CITY    CLEAR     58  55  89 CALM      30.09S
APPALACHICOLA  CLEAR     56  56 100 CALM      30.09S
$$





USA.gov is the U.S. government's official web portal to all federal, state and local government web resources and services.